| time (UTC) | temp C | wind direction | speed KPH | gust KPH | rain 1hr cm | rain 24hr cm | rain mn cm | humidity % | barometer mb |
| 20260509024306 | 11 | 144 | 4.8 | 8.0 | 0.00 | 0.18 | 0.18 | 92 | 1009.4 |
| 20260509023803 | 11 | 152 | 6.4 | 6.4 | 0.00 | 0.18 | 0.18 | 92 | 1009.3 |
| 20260509023300 | 11 | 136 | 6.4 | 8.0 | 0.00 | 0.18 | 0.18 | 92 | 1009.4 |
| 20260509022756 | 11 | 141 | 6.4 | 9.7 | 0.00 | 0.18 | 0.18 | 91 | 1009.3 |
| 20260509022254 | 11 | 150 | 6.4 | 8.0 | 0.00 | 0.18 | 0.18 | 91 | 1009.5 |
| 20260509021751 | 11 | 164 | 6.4 | 9.7 | 0.00 | 0.18 | 0.18 | 91 | 1009.4 |
| 20260509021248 | 11 | 143 | 6.4 | 6.4 | 0.00 | 0.18 | 0.18 | 90 | 1009.2 |
| 20260509020746 | 12 | 142 | 4.8 | 6.4 | 0.00 | 0.18 | 0.18 | 90 | 1009.5 |
| 20260509020243 | 12 | 132 | 6.4 | 6.4 | 0.00 | 0.18 | 0.18 | 90 | 1009.3 |
| 20260509015741 | 12 | 158 | 4.8 | 4.8 | 0.00 | 0.18 | 0.18 | 89 | 1009.5 |
| 20260509015239 | 12 | 141 | 4.8 | 6.4 | 0.00 | 0.18 | 0.18 | 89 | 1009.4 |
| 20260509014735 | 12 | 149 | 6.4 | 6.4 | 0.00 | 0.18 | 0.18 | 89 | 1009.3 |
| 20260509014232 | 12 | 147 | 3.2 | 3.2 | 0.00 | 0.18 | 0.18 | 88 | 1009.4 |
| 20260509013729 | 12 | 171 | 3.2 | 6.4 | 0.00 | 0.18 | 0.18 | 88 | 1009.5 |
| 20260509013224 | 12 | 158 | 4.8 | 6.4 | 0.00 | 0.18 | 0.18 | 88 | 1009.2 |
| 20260509012721 | 12 | 175 | 3.2 | 6.4 | 0.00 | 0.18 | 0.18 | 87 | 1009.2 |
| 20260509012218 | 12 | 185 | 8.0 | 9.7 | 0.00 | 0.18 | 0.18 | 87 | 1009.3 |
| 20260509011716 | 12 | 191 | 6.4 | 8.0 | 0.00 | 0.18 | 0.18 | 87 | 1009.0 |
| 20260509011213 | 12 | 199 | 8.0 | 8.0 | 0.00 | 0.18 | 0.18 | 86 | 1009.0 |
| 20260509010711 | 12 | 177 | 4.8 | 9.7 | 0.00 | 0.18 | 0.18 | 86 | 1009.0 |
| 20260509010207 | 12 | 197 | 12.9 | 12.9 | 0.00 | 0.18 | 0.18 | 86 | 1009.1 |
| 20260509005704 | 12 | 207 | 9.7 | 12.9 | 0.00 | 0.18 | 0.18 | 86 | 1009.2 |
| 20260509005201 | 12 | 181 | 9.7 | 14.5 | 0.00 | 0.18 | 0.18 | 86 | 1008.8 |
| 20260509004656 | 13 | 186 | 9.7 | 16.1 | 0.00 | 0.18 | 0.18 | 85 | 1008.8 |
| 20260509004154 | 13 | 173 | 8.0 | 11.3 | 0.00 | 0.18 | 0.18 | 85 | 1009.2 |
| 20260509003652 | 13 | 214 | 9.7 | 17.7 | 0.00 | 0.18 | 0.18 | 83 | 1008.9 |
| 20260509003149 | 13 | 198 | 11.3 | 16.1 | 0.00 | 0.18 | 0.18 | 83 | 1008.9 |
| 20260509002646 | 13 | 180 | 6.4 | 24.1 | 0.00 | 0.18 | 0.18 | 82 | 1009.0 |
| 20260509002143 | 13 | 162 | 6.4 | 14.5 | 0.00 | 0.18 | 0.18 | 81 | 1008.9 |
| 20260509001641 | 13 | 196 | 3.2 | 11.3 | 0.00 | 0.18 | 0.18 | 81 | 1009.0 |
| 20260509001136 | 13 | 202 | 8.0 | 14.5 | 0.00 | 0.18 | 0.18 | 81 | 1009.1 |
| 20260509000635 | 13 | 201 | 8.0 | 12.9 | 0.00 | 0.18 | 0.18 | 81 | 1009.0 |
| 20260509000131 | 13 | 201 | 8.0 | 12.9 | 0.00 | 0.18 | 0.18 | 82 | 1009.0 |
| 20260508235629 | 13 | 178 | 9.7 | 14.5 | 0.00 | 0.18 | 0.18 | 82 | 1008.9 |
| 20260508235125 | 13 | 206 | 6.4 | 24.1 | 0.00 | 0.18 | 0.18 | 82 | 1009.0 |
| 20260508234623 | 13 | 187 | 14.5 | 20.9 | 0.00 | 0.18 | 0.18 | 82 | 1008.9 |
| 20260508234119 | 13 | 184 | 11.3 | 17.7 | 0.00 | 0.18 | 0.18 | 82 | 1009.0 |
| 20260508233619 | 13 | 189 | 8.0 | 16.1 | 0.00 | 0.18 | 0.18 | 83 | 1009.2 |
| 20260508233116 | 13 | 202 | 14.5 | 22.5 | 0.00 | 0.18 | 0.18 | 83 | 1009.0 |
| 20260508232613 | 13 | 204 | 14.5 | 19.3 | 0.00 | 0.18 | 0.18 | 83 | 1009.1 |
| 20260508232109 | 14 | 205 | 17.7 | 30.6 | 0.00 | 0.18 | 0.18 | 82 | 1009.1 |
| 20260508231607 | 14 | 218 | 12.9 | 20.9 | 0.00 | 0.18 | 0.18 | 83 | 1009.2 |
| 20260508231104 | 13 | 180 | 16.1 | 19.3 | 0.00 | 0.18 | 0.18 | 83 | 1009.1 |
| 20260508230600 | 13 | 194 | 9.7 | 22.5 | 0.00 | 0.18 | 0.18 | 83 | 1009.2 |
| 20260508230057 | 14 | 217 | 9.7 | 29.0 | 0.00 | 0.18 | 0.18 | 81 | 1009.2 |
| 20260508225555 | 14 | 181 | 9.7 | 20.9 | 0.00 | 0.18 | 0.18 | 83 | 1009.3 |
| 20260508225051 | 13 | 221 | 17.7 | 20.9 | 0.00 | 0.18 | 0.18 | 83 | 1009.2 |
| 20260508224549 | 13 | 217 | 11.3 | 22.5 | 0.00 | 0.18 | 0.18 | 82 | 1009.2 |
| 20260508224046 | 13 | 223 | 17.7 | 24.1 | 0.00 | 0.18 | 0.18 | 82 | 1009.1 |
| 20260508223544 | 13 | 208 | 12.9 | 20.9 | 0.00 | 0.18 | 0.18 | 82 | 1009.3 |
| 20260508223041 | 13 | 199 | 16.1 | 19.3 | 0.00 | 0.18 | 0.18 | 82 | 1009.2 |
| 20260508222538 | 13 | 184 | 12.9 | 20.9 | 0.00 | 0.18 | 0.18 | 81 | 1009.2 |
| 20260508222035 | 13 | 193 | 9.7 | 14.5 | 0.00 | 0.18 | 0.18 | 81 | 1009.3 |
| 20260508221531 | 13 | 222 | 12.9 | 22.5 | 0.00 | 0.18 | 0.18 | 80 | 1009.3 |
| 20260508221027 | 13 | 189 | 11.3 | 19.3 | 0.00 | 0.18 | 0.18 | 81 | 1009.4 |
| 20260508220524 | 13 | 192 | 9.7 | 20.9 | 0.00 | 0.18 | 0.18 | 81 | 1009.3 |
| 20260508220020 | 13 | 210 | 22.5 | 25.7 | 0.00 | 0.18 | 0.18 | 80 | 1009.3 |
| 20260508215517 | 13 | 205 | 14.5 | 25.7 | 0.00 | 0.18 | 0.18 | 82 | 1009.2 |
| 20260508215014 | 13 | 197 | 17.7 | 22.5 | 0.00 | 0.18 | 0.18 | 82 | 1009.5 |
| 20260508214512 | 13 | 211 | 17.7 | 22.5 | 0.00 | 0.18 | 0.18 | 82 | 1009.2 |
| 20260508214008 | 13 | 205 | 17.7 | 22.5 | 0.00 | 0.18 | 0.18 | 83 | 1009.3 |
| 20260508213505 | 13 | 193 | 11.3 | 19.3 | 0.00 | 0.18 | 0.18 | 84 | 1009.4 |
| 20260508213000 | 13 | 196 | 19.3 | 24.1 | 0.00 | 0.18 | 0.18 | 83 | 1009.1 |
| 20260508212457 | 13 | 176 | 12.9 | 24.1 | 0.00 | 0.18 | 0.18 | 83 | 1009.5 |
| 20260508211953 | 13 | 187 | 16.1 | 27.4 | 0.00 | 0.18 | 0.18 | 82 | 1009.4 |
| 20260508211449 | 13 | 198 | 11.3 | 24.1 | 0.00 | 0.18 | 0.18 | 83 | 1009.5 |
| 20260508210946 | 13 | 209 | 17.7 | 24.1 | 0.00 | 0.18 | 0.18 | 83 | 1009.6 |
| 20260508210443 | 13 | 215 | 20.9 | 27.4 | 0.00 | 0.18 | 0.18 | 83 | 1009.7 |
| 20260508205939 | 12 | 219 | 14.5 | 30.6 | 0.00 | 0.18 | 0.18 | 84 | 1009.5 |
| 20260508205436 | 12 | 196 | 6.4 | 14.5 | 0.05 | 0.18 | 0.18 | 85 | 1009.8 |
| 20260508204932 | 13 | 222 | 14.5 | 22.5 | 0.05 | 0.18 | 0.18 | 82 | 1009.9 |
| 20260508204430 | 13 | 214 | 12.9 | 25.7 | 0.05 | 0.15 | 0.15 | 82 | 1009.7 |
| 20260508203925 | 13 | 159 | 12.9 | 22.5 | 0.05 | 0.15 | 0.15 | 81 | 1009.7 |
| 20260508203422 | 13 | 165 | 14.5 | 16.1 | 0.05 | 0.15 | 0.15 | 79 | 1009.9 |
| 20260508202918 | 14 | 155 | 14.5 | 16.1 | 0.05 | 0.15 | 0.15 | 78 | 1009.7 |
| 20260508202415 | 14 | 148 | 11.3 | 17.7 | 0.13 | 0.15 | 0.15 | 75 | 1009.8 |
| 20260508201912 | 15 | 154 | 6.4 | 8.0 | 0.13 | 0.15 | 0.15 | 74 | 1009.9 |
| 20260508201409 | 15 | 199 | 6.4 | 8.0 | 0.00 | 0.13 | 0.13 | 70 | 1009.9 |
| 20260508200905 | 15 | 199 | 4.8 | 4.8 | 0.00 | 0.13 | 0.13 | 70 | 1010.0 |
| 20260508200402 | 15 | 198 | 3.2 | 4.8 | 0.00 | 0.13 | 0.13 | 71 | 1010.2 |
| 20260508195858 | 15 | 184 | 3.2 | 4.8 | 0.00 | 0.13 | 0.13 | 72 | 1010.2 |
| 20260508195355 | 15 | 357 | 3.2 | 6.4 | 0.00 | 0.13 | 0.13 | 71 | 1010.3 |
| 20260508194851 | 15 | 34 | 3.2 | 6.4 | 0.00 | 0.13 | 0.13 | 71 | 1010.4 |
| 20260508194348 | 15 | 334 | 3.2 | 4.8 | 0.00 | 0.13 | 0.13 | 70 | 1010.3 |
| 20260508193845 | 15 | 55 | 3.2 | 4.8 | 0.00 | 0.13 | 0.13 | 70 | 1010.4 |
| 20260508193342 | 15 | 299 | 0.0 | 4.8 | 0.00 | 0.13 | 0.13 | 71 | 1010.4 |
| 20260508192838 | 15 | 36 | 4.8 | 8.0 | 0.00 | 0.13 | 0.13 | 72 | 1010.5 |
| 20260508192335 | 15 | 7 | 3.2 | 4.8 | 0.00 | 0.13 | 0.13 | 71 | 1010.7 |
| 20260508191832 | 15 | 115 | 3.2 | 4.8 | 0.00 | 0.13 | 0.13 | 71 | 1010.6 |
| 20260508191330 | 15 | 55 | 3.2 | 3.2 | 0.00 | 0.13 | 0.13 | 71 | 1010.4 |
| 20260508190827 | 14 | 179 | 4.8 | 6.4 | 0.00 | 0.13 | 0.13 | 72 | 1010.5 |
| 20260508190323 | 14 | 142 | 8.0 | 8.0 | 0.00 | 0.13 | 0.13 | 70 | 1010.7 |
| 20260508185819 | 14 | 167 | 6.4 | 9.7 | 0.00 | 0.13 | 0.13 | 71 | 1010.7 |
| 20260508185317 | 15 | 171 | 9.7 | 12.9 | 0.00 | 0.13 | 0.13 | 69 | 1010.9 |
| 20260508184814 | 15 | 177 | 1.6 | 4.8 | 0.00 | 0.13 | 0.13 | 69 | 1011.0 |
| 20260508184311 | 15 | 119 | 3.2 | 4.8 | 0.00 | 0.13 | 0.13 | 70 | 1011.0 |
| 20260508183808 | 14 | 262 | 1.6 | 1.6 | 0.00 | 0.13 | 0.13 | 71 | 1010.7 |
| 20260508183305 | 14 | 194 | 3.2 | 9.7 | 0.00 | 0.13 | 0.13 | 73 | 1011.2 |
| 20260508182800 | 14 | 172 | 4.8 | 6.4 | 0.00 | 0.13 | 0.13 | 70 | 1011.1 |
| 20260508182257 | 14 | 212 | 3.2 | 4.8 | 0.00 | 0.13 | 0.13 | 73 | 1011.3 |
| 20260508181753 | 13 | 182 | 6.4 | 9.7 | 0.00 | 0.13 | 0.13 | 72 | 1011.3 |
| 20260508181250 | 13 | 193 | 9.7 | 9.7 | 0.00 | 0.13 | 0.13 | 73 | 1011.4 |
| 20260508180747 | 13 | 174 | 12.9 | 14.5 | 0.00 | 0.13 | 0.13 | 74 | 1011.5 |
| 20260508180244 | 13 | 169 | 3.2 | 9.7 | 0.00 | 0.13 | 0.13 | 76 | 1011.7 |
| 20260508175740 | 13 | 206 | 6.4 | 6.4 | 0.00 | 0.13 | 0.13 | 76 | 1011.5 |
| 20260508175237 | 13 | 211 | 8.0 | 12.9 | 0.00 | 0.13 | 0.13 | 76 | 1011.8 |
| 20260508174735 | 12 | 158 | 9.7 | 14.5 | 0.00 | 0.13 | 0.13 | 78 | 1012.0 |
| 20260508174232 | 12 | 180 | 12.9 | 14.5 | 0.00 | 0.13 | 0.13 | 79 | 1012.0 |
| 20260508173728 | 12 | 213 | 11.3 | 12.9 | 0.00 | 0.13 | 0.13 | 79 | 1012.2 |
| 20260508173224 | 12 | 207 | 8.0 | 14.5 | 0.00 | 0.13 | 0.13 | 79 | 1012.0 |
| 20260508172721 | 12 | 160 | 4.8 | 6.4 | 0.00 | 0.13 | 0.13 | 81 | 1012.2 |
| 20260508172218 | 12 | 189 | 3.2 | 8.0 | 0.00 | 0.13 | 0.13 | 79 | 1012.3 |
| 20260508171714 | 12 | 174 | 4.8 | 6.4 | 0.00 | 0.13 | 0.13 | 83 | 1012.4 |
| 20260508171211 | 12 | 189 | 4.8 | 6.4 | 0.00 | 0.13 | 0.13 | 83 | 1012.6 |
| 20260508170708 | 11 | 192 | 6.4 | 11.3 | 0.00 | 0.13 | 0.13 | 82 | 1012.5 |
| 20260508170206 | 11 | 174 | 6.4 | 14.5 | 0.00 | 0.13 | 0.13 | 84 | 1012.7 |
| 20260508165702 | 11 | 176 | 8.0 | 12.9 | 0.00 | 0.13 | 0.13 | 85 | 1012.7 |
| 20260508165159 | 11 | 186 | 6.4 | 14.5 | 0.00 | 0.13 | 0.13 | 84 | 1012.8 |
| 20260508164656 | 11 | 184 | 12.9 | 17.7 | 0.05 | 0.13 | 0.13 | 85 | 1012.8 |
| 20260508164152 | 11 | 180 | 6.4 | 11.3 | 0.23 | 0.13 | 0.13 | 84 | 1012.9 |
| 20260508163651 | 11 | 158 | 11.3 | 11.3 | 0.18 | 0.10 | 0.10 | 83 | 1012.9 |
| 20260508163148 | 12 | 179 | 6.4 | 16.1 | 0.00 | 0.08 | 0.08 | 82 | 1013.1 |
| 20260508162643 | 12 | 185 | 6.4 | 16.1 | 0.00 | 0.08 | 0.08 | 81 | 1013.0 |
| 20260508162141 | 12 | 189 | 14.5 | 14.5 | 0.00 | 0.08 | 0.08 | 81 | 1013.1 |
| 20260508161637 | 12 | 194 | 11.3 | 20.9 | 0.00 | 0.08 | 0.08 | 80 | 1012.9 |
| 20260508161135 | 12 | 213 | 16.1 | 20.9 | 0.00 | 0.08 | 0.08 | 80 | 1012.9 |
| 20260508160633 | 12 | 182 | 16.1 | 19.3 | 0.00 | 0.08 | 0.08 | 79 | 1012.8 |
| 20260508160131 | 12 | 208 | 8.0 | 14.5 | 0.00 | 0.08 | 0.08 | 81 | 1012.8 |
| 20260508155627 | 12 | 219 | 12.9 | 12.9 | 0.00 | 0.08 | 0.08 | 81 | 1012.9 |
| 20260508155124 | 12 | 176 | 11.3 | 17.7 | 0.00 | 0.08 | 0.08 | 82 | 1012.9 |
| 20260508154621 | 11 | 189 | 9.7 | 17.7 | 0.00 | 0.08 | 0.08 | 82 | 1012.8 |
| 20260508154118 | 11 | 213 | 3.2 | 12.9 | 0.00 | 0.08 | 0.08 | 83 | 1012.9 |
| 20260508153615 | 11 | 214 | 11.3 | 14.5 | 0.00 | 0.08 | 0.08 | 83 | 1013.0 |
| 20260508153112 | 11 | 196 | 8.0 | 20.9 | 0.00 | 0.08 | 0.08 | 83 | 1013.0 |
| 20260508152609 | 11 | 204 | 14.5 | 19.3 | 0.00 | 0.08 | 0.08 | 84 | 1013.0 |
| 20260508152103 | 11 | 197 | 8.0 | 19.3 | 0.00 | 0.08 | 0.08 | 87 | 1013.0 |
| 20260508151601 | 10 | 218 | 14.5 | 14.5 | 0.00 | 0.08 | 0.08 | 89 | 1012.8 |
| 20260508151058 | 10 | 159 | 4.8 | 11.3 | 0.00 | 0.08 | 0.08 | 90 | 1013.1 |
| 20260508150555 | 10 | 162 | 11.3 | 12.9 | 0.00 | 0.08 | 0.08 | 90 | 1012.9 |
| 20260508150050 | 10 | 192 | 9.7 | 9.7 | 0.05 | 0.08 | 0.08 | 90 | 1013.1 |
| 20260508145547 | 10 | 184 | 4.8 | 6.4 | 0.13 | 0.08 | 0.08 | 90 | 1013.1 |
| 20260508145044 | 10 | 185 | 1.6 | 4.8 | 0.13 | 0.08 | 0.08 | 90 | 1013.3 |
| 20260508144542 | 10 | 252 | 3.2 | 14.5 | 0.18 | 0.05 | 0.05 | 89 | 1013.3 |
| 20260508144039 | 10 | 238 | 6.4 | 11.3 | 0.13 | 0.05 | 0.05 | 89 | 1013.5 |
| 20260508143536 | 10 | 111 | 0.0 | 14.5 | 0.00 | 0.03 | 0.03 | 88 | 1013.5 |
| 20260508143032 | 10 | 249 | 14.5 | 16.1 | 0.00 | 0.03 | 0.03 | 88 | 1013.5 |
| 20260508142530 | 10 | 229 | 8.0 | 19.3 | 0.05 | 0.03 | 0.03 | 87 | 1013.8 |
| 20260508142026 | 10 | 190 | 4.8 | 16.1 | 0.13 | 0.03 | 0.03 | 86 | 1013.7 |
| 20260508141522 | 10 | 210 | 6.4 | 12.9 | 0.05 | 0.03 | 0.03 | 85 | 1013.5 |
| 20260508141021 | 11 | 200 | 14.5 | 17.7 | 0.00 | 0.00 | 0.00 | 83 | 1013.7 |
| 20260508140518 | 11 | 212 | 11.3 | 11.3 | 0.00 | 0.00 | 0.00 | 83 | 1013.5 |
| 20260508140014 | 11 | 192 | 4.8 | 12.9 | 0.00 | 0.00 | 0.00 | 82 | 1013.4 |
| 20260508135509 | 11 | 244 | 6.4 | 16.1 | 0.00 | 0.00 | 0.00 | 82 | 1013.2 |
| 20260508135006 | 11 | 191 | 3.2 | 9.7 | 0.00 | 0.00 | 0.00 | 82 | 1013.2 |
| 20260508134503 | 10 | 208 | 14.5 | 17.7 | 0.00 | 0.00 | 0.00 | 82 | 1013.2 |
| 20260508134000 | 10 | 207 | 4.8 | 9.7 | 0.00 | 0.00 | 0.00 | 82 | 1013.3 |
| 20260508133457 | 10 | 207 | 9.7 | 12.9 | 0.00 | 0.00 | 0.00 | 82 | 1013.5 |
| 20260508132954 | 10 | 208 | 8.0 | 20.9 | 0.00 | 0.00 | 0.00 | 81 | 1013.5 |
| 20260508132452 | 10 | 194 | 11.3 | 17.7 | 0.00 | 0.00 | 0.00 | 81 | 1013.3 |
| 20260508131948 | 10 | 217 | 11.3 | 12.9 | 0.00 | 0.00 | 0.00 | 82 | 1013.3 |
| 20260508131443 | 10 | 193 | 4.8 | 9.7 | 0.00 | 0.00 | 0.00 | 82 | 1013.1 |
| 20260508130940 | 10 | 177 | 8.0 | 12.9 | 0.00 | 0.00 | 0.00 | 82 | 1013.1 |
| 20260508130438 | 10 | 187 | 11.3 | 14.5 | 0.00 | 0.00 | 0.00 | 82 | 1013.3 |
| 20260508125933 | 10 | 206 | 8.0 | 9.7 | 0.00 | 0.00 | 0.00 | 82 | 1013.4 |
| 20260508125429 | 10 | 154 | 4.8 | 14.5 | 0.00 | 0.00 | 0.00 | 83 | 1013.4 |
| 20260508124927 | 10 | 200 | 4.8 | 9.7 | 0.00 | 0.00 | 0.00 | 83 | 1013.2 |
| 20260508124425 | 10 | 192 | 8.0 | 8.0 | 0.00 | 0.00 | 0.00 | 83 | 1013.3 |
| 20260508123922 | 10 | 187 | 4.8 | 9.7 | 0.00 | 0.00 | 0.00 | 83 | 1013.4 |
| 20260508123421 | 10 | 202 | 6.4 | 12.9 | 0.00 | 0.00 | 0.00 | 82 | 1013.4 |
| 20260508122917 | 10 | 211 | 0.0 | 4.8 | 0.00 | 0.00 | 0.00 | 83 | 1013.3 |
| 20260508122414 | 10 | 153 | 1.6 | 6.4 | 0.00 | 0.00 | 0.00 | 83 | 1013.3 |
| 20260508121911 | 10 | 264 | 3.2 | 8.0 | 0.00 | 0.00 | 0.00 | 83 | 1013.2 |
| 20260508121409 | 10 | 238 | 3.2 | 9.7 | 0.00 | 0.00 | 0.00 | 83 | 1013.2 |
| 20260508120907 | 10 | 192 | 3.2 | 8.0 | 0.00 | 0.00 | 0.00 | 83 | 1013.1 |
| 20260508120404 | 9 | 214 | 6.4 | 9.7 | 0.00 | 0.00 | 0.00 | 83 | 1013.3 |
| 20260508115901 | 9 | 149 | 3.2 | 6.4 | 0.00 | 0.00 | 0.00 | 83 | 1013.1 |
| 20260508115359 | 9 | 226 | 3.2 | 6.4 | 0.00 | 0.00 | 0.00 | 83 | 1013.1 |
| 20260508114855 | 9 | 186 | 1.6 | 6.4 | 0.00 | 0.00 | 0.00 | 82 | 1013.2 |
| 20260508114352 | 9 | 166 | 3.2 | 6.4 | 0.00 | 0.00 | 0.00 | 82 | 1013.1 |
| 20260508113849 | 10 | 178 | 3.2 | 6.4 | 0.00 | 0.00 | 0.00 | 82 | 1013.2 |
| 20260508113347 | 10 | 228 | 8.0 | 11.3 | 0.00 | 0.00 | 0.00 | 83 | 1012.9 |
| 20260508112844 | 9 | 237 | 3.2 | 6.4 | 0.00 | 0.00 | 0.00 | 84 | 1012.9 |
| 20260508112341 | 8 | 170 | 3.2 | 8.0 | 0.00 | 0.00 | 0.00 | 86 | 1013.0 |
| 20260508111837 | 8 | 177 | 4.8 | 4.8 | 0.00 | 0.00 | 0.00 | 86 | 1013.0 |
| 20260508111334 | 7 | 181 | 1.6 | 4.8 | 0.00 | 0.00 | 0.00 | 87 | 1012.9 |
| 20260508110831 | 7 | 216 | 0.0 | 6.4 | 0.00 | 0.00 | 0.00 | 87 | 1012.8 |
| 20260508110329 | 7 | 205 | 6.4 | 9.7 | 0.00 | 0.00 | 0.00 | 88 | 1012.6 |
| 20260508105829 | 7 | 103 | 0.0 | 3.2 | 0.00 | 0.00 | 0.00 | 88 | 1012.6 |
| 20260508105326 | 7 | 192 | 6.4 | 6.4 | 0.00 | 0.00 | 0.00 | 88 | 1012.8 |
| 20260508104823 | 7 | 196 | 4.8 | 4.8 | 0.00 | 0.00 | 0.00 | 89 | 1012.7 |
| 20260508104319 | 7 | 221 | 4.8 | 6.4 | 0.00 | 0.00 | 0.00 | 90 | 1012.7 |
| 20260508103817 | 6 | 170 | 6.4 | 6.4 | 0.00 | 0.00 | 0.00 | 89 | 1012.7 |
| 20260508103313 | 6 | 169 | 0.0 | 4.8 | 0.00 | 0.00 | 0.00 | 89 | 1012.4 |
| 20260508102811 | 6 | 185 | 4.8 | 6.4 | 0.00 | 0.00 | 0.00 | 89 | 1012.3 |
| 20260508102309 | 6 | 175 | 3.2 | 6.4 | 0.00 | 0.00 | 0.00 | 88 | 1012.3 |
| 20260508101806 | 7 | 181 | 3.2 | 6.4 | 0.00 | 0.00 | 0.00 | 88 | 1012.5 |
| 20260508101303 | 7 | 181 | 3.2 | 6.4 | 0.00 | 0.00 | 0.00 | 87 | 1012.5 |
| 20260508100801 | 7 | 180 | 4.8 | 6.4 | 0.00 | 0.00 | 0.00 | 87 | 1012.6 |
| 20260508100259 | 7 | 175 | 3.2 | 6.4 | 0.00 | 0.00 | 0.00 | 86 | 1012.5 |
| 20260508095754 | 7 | 181 | 6.4 | 12.9 | 0.00 | 0.00 | 0.00 | 87 | 1012.5 |
| 20260508095252 | 7 | 183 | 6.4 | 6.4 | 0.00 | 0.00 | 0.00 | 88 | 1012.4 |
| 20260508094749 | 7 | 179 | 3.2 | 9.7 | 0.00 | 0.00 | 0.00 | 87 | 1012.7 |
| 20260508094246 | 7 | 183 | 8.0 | 14.5 | 0.00 | 0.00 | 0.00 | 87 | 1012.6 |
| 20260508093743 | 7 | 180 | 8.0 | 11.3 | 0.00 | 0.00 | 0.00 | 88 | 1012.7 |
| 20260508093241 | 7 | 183 | 3.2 | 6.4 | 0.00 | 0.00 | 0.00 | 88 | 1012.7 |
| 20260508092737 | 7 | 198 | 4.8 | 6.4 | 0.00 | 0.00 | 0.00 | 87 | 1012.7 |
| 20260508092236 | 7 | 207 | 6.4 | 8.0 | 0.00 | 0.00 | 0.00 | 87 | 1012.6 |
| 20260508091734 | 7 | 186 | 4.8 | 8.0 | 0.00 | 0.00 | 0.00 | 86 | 1012.6 |
| 20260508091230 | 7 | 207 | 9.7 | 9.7 | 0.00 | 0.00 | 0.00 | 87 | 1012.9 |
| 20260508090728 | 7 | 201 | 8.0 | 8.0 | 0.00 | 0.00 | 0.00 | 87 | 1012.7 |
| 20260508090225 | 7 | 173 | 6.4 | 8.0 | 0.00 | 0.00 | 0.00 | 87 | 1012.7 |
| 20260508085721 | 7 | 196 | 8.0 | 9.7 | 0.00 | 0.00 | 0.00 | 87 | 1012.8 |
| 20260508085219 | 7 | 199 | 6.4 | 9.7 | 0.00 | 0.00 | 0.00 | 87 | 1012.8 |
| 20260508084714 | 7 | 197 | 6.4 | 11.3 | 0.00 | 0.00 | 0.00 | 87 | 1012.8 |
| 20260508084212 | 7 | 189 | 6.4 | 16.1 | 0.00 | 0.00 | 0.00 | 86 | 1012.9 |
| 20260508083709 | 7 | 198 | 9.7 | 16.1 | 0.00 | 0.00 | 0.00 | 87 | 1012.8 |
| 20260508083207 | 7 | 199 | 4.8 | 11.3 | 0.00 | 0.00 | 0.00 | 88 | 1012.9 |
| 20260508082707 | 7 | 193 | 6.4 | 14.5 | 0.00 | 0.00 | 0.00 | 88 | 1012.8 |
| 20260508082205 | 7 | 204 | 11.3 | 16.1 | 0.00 | 0.00 | 0.00 | 89 | 1012.9 |
| 20260508081703 | 6 | 203 | 9.7 | 12.9 | 0.00 | 0.00 | 0.00 | 89 | 1012.7 |
| 20260508081159 | 6 | 180 | 6.4 | 9.7 | 0.00 | 0.00 | 0.00 | 89 | 1012.6 |
| 20260508080656 | 6 | 170 | 6.4 | 11.3 | 0.00 | 0.00 | 0.00 | 90 | 1012.6 |
| 20260508080154 | 6 | 168 | 4.8 | 6.4 | 0.00 | 0.00 | 0.00 | 90 | 1012.9 |
| 20260508075650 | 6 | 201 | 8.0 | 9.7 | 0.00 | 0.00 | 0.00 | 90 | 1012.8 |
| 20260508075148 | 6 | 181 | 6.4 | 9.7 | 0.00 | 0.00 | 0.00 | 90 | 1012.6 |
| 20260508074645 | 6 | 201 | 8.0 | 9.7 | 0.00 | 0.00 | 0.00 | 90 | 1012.5 |
| 20260508074142 | 6 | 195 | 6.4 | 9.7 | 0.00 | 0.00 | 0.00 | 90 | 1012.7 |
| 20260508073639 | 6 | 179 | 6.4 | 8.0 | 0.00 | 0.00 | 0.00 | 91 | 1012.6 |
| 20260508073137 | 6 | 167 | 6.4 | 9.7 | 0.00 | 0.00 | 0.00 | 91 | 1012.6 |
| 20260508072632 | 6 | 198 | 9.7 | 12.9 | 0.00 | 0.00 | 0.00 | 91 | 1012.7 |
| 20260508072130 | 6 | 168 | 6.4 | 6.4 | 0.00 | 0.00 | 0.00 | 91 | 1012.7 |
| 20260508071627 | 6 | 198 | 4.8 | 6.4 | 0.05 | 0.00 | 0.00 | 92 | 1012.8 |
| 20260508071125 | 6 | 168 | 6.4 | 9.7 | 0.05 | 0.00 | 0.00 | 92 | 1012.9 |
| 20260508070623 | 6 | 170 | 6.4 | 8.0 | 0.00 | 0.00 | 0.00 | 92 | 1012.8 |
| 20260508070121 | 6 | 182 | 6.4 | 9.7 | 0.00 | 0.00 | 0.00 | 92 | 1012.6 |
| 20260508065618 | 6 | 188 | 6.4 | 9.7 | 0.00 | 0.00 | 0.00 | 93 | 1012.8 |
| 20260508065116 | 6 | 178 | 6.4 | 6.4 | 0.00 | 0.00 | 0.00 | 93 | 1012.8 |
| 20260508064613 | 6 | 175 | 6.4 | 6.4 | 0.00 | 0.00 | 0.00 | 93 | 1012.8 |
| 20260508064111 | 6 | 153 | 8.0 | 8.0 | 0.00 | 0.00 | 0.00 | 93 | 1012.9 |
| 20260508063608 | 6 | 166 | 4.8 | 6.4 | 0.00 | 0.00 | 0.00 | 93 | 1013.0 |
| 20260508063106 | 6 | 164 | 4.8 | 8.0 | 0.00 | 0.00 | 0.00 | 93 | 1013.0 |
| 20260508062603 | 6 | 168 | 3.2 | 8.0 | 0.00 | 0.00 | 0.00 | 93 | 1013.1 |
| 20260508062100 | 6 | 160 | 6.4 | 8.0 | 0.00 | 0.00 | 0.00 | 93 | 1013.1 |
| 20260508061558 | 6 | 161 | 6.4 | 8.0 | 0.00 | 0.00 | 0.00 | 93 | 1013.1 |
| 20260508061055 | 6 | 166 | 8.0 | 9.7 | 0.00 | 0.00 | 0.00 | 93 | 1013.1 |
| 20260508060551 | 6 | 172 | 6.4 | 9.7 | 0.00 | 0.00 | 0.00 | 93 | 1013.2 |
| 20260508060049 | 7 | 153 | 4.8 | 8.0 | 0.00 | 0.00 | 0.00 | 93 | 1013.2 |
| 20260508055544 | 7 | 170 | 6.4 | 9.7 | 0.00 | 0.00 | 0.00 | 93 | 1013.3 |
| 20260508055041 | 7 | 143 | 6.4 | 8.0 | 0.00 | 0.00 | 0.00 | 93 | 1013.5 |
| 20260508054537 | 7 | 162 | 8.0 | 8.0 | 0.00 | 0.00 | 0.00 | 93 | 1013.3 |
| 20260508054035 | 7 | 161 | 6.4 | 8.0 | 0.00 | 0.00 | 0.00 | 93 | 1013.2 |
| 20260508053531 | 7 | 164 | 6.4 | 11.3 | 0.00 | 0.00 | 0.00 | 93 | 1013.4 |
| 20260508053030 | 7 | 163 | 8.0 | 8.0 | 0.00 | 0.00 | 0.00 | 93 | 1013.3 |
| 20260508052527 | 7 | 169 | 8.0 | 11.3 | 0.00 | 0.00 | 0.00 | 93 | 1013.3 |
| 20260508052024 | 7 | 172 | 4.8 | 9.7 | 0.00 | 0.00 | 0.00 | 93 | 1013.5 |
| 20260508051520 | 7 | 157 | 8.0 | 9.7 | 0.00 | 0.00 | 0.00 | 93 | 1013.4 |
| 20260508051015 | 7 | 158 | 6.4 | 9.7 | 0.00 | 0.00 | 0.00 | 93 | 1013.6 |
| 20260508050512 | 7 | 156 | 4.8 | 8.0 | 0.00 | 0.00 | 0.00 | 93 | 1013.3 |
| 20260508050009 | 7 | 169 | 4.8 | 9.7 | 0.00 | 0.00 | 0.00 | 93 | 1013.3 |
| 20260508045505 | 7 | 157 | 8.0 | 11.3 | 0.00 | 0.00 | 0.00 | 94 | 1013.4 |
| 20260508045003 | 7 | 170 | 6.4 | 9.7 | 0.00 | 0.00 | 0.00 | 94 | 1013.4 |
| 20260508044500 | 7 | 163 | 8.0 | 11.3 | 0.00 | 0.00 | 0.00 | 94 | 1013.4 |
| 20260508043955 | 7 | 138 | 8.0 | 11.3 | 0.00 | 0.00 | 0.00 | 94 | 1013.6 |
| 20260508043453 | 7 | 154 | 8.0 | 8.0 | 0.00 | 0.00 | 0.00 | 94 | 1013.4 |
| 20260508042949 | 7 | 164 | 6.4 | 8.0 | 0.00 | 0.00 | 0.00 | 94 | 1013.4 |
| 20260508042447 | 7 | 154 | 6.4 | 6.4 | 0.00 | 0.00 | 0.00 | 94 | 1013.5 |
| 20260508041944 | 7 | 179 | 6.4 | 8.0 | 0.00 | 0.00 | 0.00 | 94 | 1013.6 |
| 20260508041440 | 7 | 138 | 9.7 | 12.9 | 0.00 | 0.00 | 0.00 | 94 | 1013.5 |
| 20260508040937 | 7 | 184 | 4.8 | 11.3 | 0.00 | 0.00 | 0.00 | 94 | 1013.4 |
| 20260508040434 | 7 | 156 | 6.4 | 11.3 | 0.00 | 0.00 | 0.00 | 94 | 1013.4 |
| 20260508035932 | 7 | 139 | 8.0 | 12.9 | 0.00 | 0.28 | 0.28 | 93 | 1013.6 |
| 20260508035429 | 7 | 159 | 6.4 | 11.3 | 0.00 | 0.28 | 0.28 | 93 | 1013.4 |
| 20260508034925 | 7 | 154 | 9.7 | 11.3 | 0.00 | 0.28 | 0.28 | 93 | 1013.6 |
| 20260508034423 | 7 | 152 | 9.7 | 11.3 | 0.00 | 0.28 | 0.28 | 93 | 1013.6 |
| 20260508033919 | 7 | 145 | 6.4 | 9.7 | 0.00 | 0.28 | 0.28 | 93 | 1013.6 |
| 20260508033418 | 7 | 142 | 6.4 | 9.7 | 0.00 | 0.28 | 0.28 | 93 | 1013.7 |
| 20260508032915 | 7 | 147 | 8.0 | 9.7 | 0.00 | 0.28 | 0.28 | 93 | 1013.7 |
| 20260508032412 | 7 | 143 | 6.4 | 14.5 | 0.00 | 0.28 | 0.28 | 92 | 1013.7 |
| 20260508031909 | 7 | 159 | 8.0 | 9.7 | 0.00 | 0.28 | 0.28 | 92 | 1013.6 |
| 20260508031406 | 7 | 151 | 8.0 | 9.7 | 0.00 | 0.28 | 0.28 | 91 | 1013.8 |
| 20260508030901 | 7 | 142 | 6.4 | 9.7 | 0.00 | 0.28 | 0.28 | 91 | 1013.7 |
| 20260508030359 | 8 | 154 | 9.7 | 9.7 | 0.00 | 0.28 | 0.28 | 90 | 1013.9 |
| 20260508025856 | 8 | 143 | 6.4 | 9.7 | 0.05 | 0.28 | 0.28 | 89 | 1013.9 |
| 20260508025352 | 8 | 146 | 6.4 | 6.4 | 0.05 | 0.28 | 0.28 | 89 | 1014.2 |
| 20260508024849 | 8 | 28 | 4.8 | 9.7 | 0.23 | 0.28 | 0.28 | 88 | 1014.3 |